Regional Weather Roundup
Issued by NWS Albany, NY

Home | Current Version | Previous Version | Text Only | Print | Product List | Glossary On
Versions: 1 2 3 4 5 6 7 8 9 10 11 12 13 14 15 16 17 18 19 20 21 22 23 24 25 26 27
000
ASUS41 KALY 272110
RWRALY

NEW YORK STATE HOURLY WEATHER ROUNDUP
NATIONAL WEATHER SERVICE ALBANY NY
500 PM EDT WED JUL 27 2016

NOTE: "FAIR" INDICATES FEW OR NO CLOUDS BELOW 12,000 FEET WITH NO
SIGNIFICANT WEATHER AND/OR NO OBSTRUCTIONS TO VISIBILITY.

NYZ032-033-038>043-046>054-057>066-NYZ062>081-082-084-272200-
EAST


CITY           SKY/WX    TMP DP  RH WIND       PRES   REMARKS
ALBANY         MOSUNNY   89  57  33 W8        29.89F
GLENS FALLS    MOSUNNY   87  60  40 S8        29.86F
POUGHKEEPSIE   SUNNY     91  59  33 W6        29.88F HX  90
NEWBURGH       MOSUNNY   88  61  40 NW7       29.93F
MONTGOMERY     MOSUNNY   89  60  37 CALM      29.91F
WHITE PLAINS   MOSUNNY   89  59  36 NW8       29.90F
ISLIP          MOSUNNY   84  67  56 S9        29.90F
NEW YORK CITY  MOSUNNY   94  63  35 SE10      29.88F HX  95
CENTRAL PARK   MOSUNNY   87  63  44 W5        29.92F
$$

NYZ005>009-017-018-044>046-055-056-272200-
CENTRAL


CITY           SKY/WX    TMP DP  RH WIND       PRES   REMARKS
FULTON         SUNNY     91  61  36 W8        29.90F HX  91
SYRACUSE       MOSUNNY   86  61  42 NW7       29.90F
ROME           SUNNY     85  59  41 SW9       29.92F
ELMIRA         MOSUNNY   89  55  31 N3        29.92F
BINGHAMTON     MOSUNNY   85  55  35 N8        29.97F
MONTICELLO     PTSUNNY   82  61  47 W6        29.98F
$$

NYZ026>034-041>043-087-272200-
NORTH


CITY           SKY/WX    TMP DP  RH WIND       PRES   REMARKS
WATERTOWN      SUNNY     85  55  35 SW13      29.89F
FORT DRUM      NOT AVBL
MASSENA        MOSUNNY   83  63  50 SW7       29.85F
SARANAC LAKE   PTSUNNY   81  55  40 SW7       29.93S
PLATTSBURGH    SUNNY     86  63  45 SE9       29.84F
$$

NYZ001>004-010>016-019>021-085-272200-
WEST


CITY           SKY/WX    TMP DP  RH WIND       PRES   REMARKS
NIAGARA FALLS  PTSUNNY   88  63  43 S16       29.91F
BUFFALO        PTSUNNY   83  63  50 SW18      29.93F
DUNKIRK        SUNNY     82  64  54 W10       29.96F
JAMESTOWN      MOSUNNY   81  57  44 W9        30.00F
WELLSVILLE     MOSUNNY   85  58  39 W5        30.02F
ROCHESTER      PTSUNNY   88  63  43 W13       29.90F
PENN YAN       SUNNY     87  59  38 NW6       29.93F
$$

             KEY
       WCI = WIND CHILL INDEX
       VSB = VISIBILITY
       HX  = HEAT INDEX
$$




USA.gov is the U.S. government's official web portal to all federal, state and local government web resources and services.